VOZ500 YBCG-YSSY

Flight info

Callsign VOZ500
Flight time 1h 9m
Altitude 34000
Route APAGI5/14 APAGI H91 IGDAM/N0449F330 H652 BOREE BOREE4A
Aircraft B738/M-SDE2E3FGHIRWXY/LB1

Departure

Time 2026-05-06 11:13
Airport Gold Coast Airport (YBCG)

Arrival

Time 2026-05-06 12:22
Airport Sydney Kingsford Smith International Airport (YSSY)
Time Latitude Longitude Altitude Speed Heading
2026-05-06 10:31 -28.16652 153.51161 25 ft 0 kts 60°
2026-05-06 10:59 -28.16655 153.51155 25 ft 4 kts 60°
2026-05-06 10:59 -28.16669 153.51129 27 ft 4 kts 58°
2026-05-06 11:00 -28.16681 153.51102 28 ft 4 kts 71°
2026-05-06 11:00 -28.16692 153.51072 29 ft 4 kts 36°
2026-05-06 11:00 -28.16705 153.51066 30 ft 4 kts 349°
2026-05-06 11:00 -28.16727 153.51076 26 ft 2 kts 330°
2026-05-06 11:01 -28.16728 153.51077 26 ft 0 kts 330°
2026-05-06 11:04 -28.16715 153.51069 29 ft 6 kts 331°
2026-05-06 11:05 -28.16670 153.51040 28 ft 8 kts 328°
2026-05-06 11:05 -28.16617 153.51008 26 ft 9 kts 329°
2026-05-06 11:05 -28.16561 153.50971 26 ft 9 kts 326°
2026-05-06 11:05 -28.16507 153.50934 27 ft 9 kts 323°
2026-05-06 11:06 -28.16493 153.50876 25 ft 8 kts 256°
2026-05-06 11:06 -28.16481 153.50819 30 ft 8 kts 313°
2026-05-06 11:06 -28.16432 153.50783 25 ft 8 kts 329°
2026-05-06 11:06 -28.16386 153.50754 29 ft 8 kts 331°
2026-05-06 11:07 -28.16334 153.50720 27 ft 9 kts 332°
2026-05-06 11:07 -28.16273 153.50682 26 ft 10 kts 331°
2026-05-06 11:07 -28.16207 153.50640 26 ft 12 kts 331°
2026-05-06 11:07 -28.16133 153.50592 26 ft 13 kts 332°
2026-05-06 11:08 -28.16053 153.50542 28 ft 14 kts 330°
2026-05-06 11:08 -28.15968 153.50488 25 ft 14 kts 330°
2026-05-06 11:08 -28.15878 153.50431 26 ft 15 kts 330°
2026-05-06 11:08 -28.15784 153.50370 27 ft 16 kts 330°
2026-05-06 11:09 -28.15686 153.50308 26 ft 15 kts 330°
2026-05-06 11:09 -28.15612 153.50239 28 ft 11 kts 295°
2026-05-06 11:09 -28.15608 153.50191 26 ft 0 kts 257°
2026-05-06 11:10 -28.15609 153.50191 26 ft 0 kts 257°
2026-05-06 11:10 -28.15610 153.50186 28 ft 0 kts 257°
2026-05-06 11:11 -28.15610 153.50184 28 ft 0 kts 255°
2026-05-06 11:11 -28.15612 153.50177 26 ft 2 kts 249°
2026-05-06 11:11 -28.15620 153.50160 27 ft 4 kts 244°
2026-05-06 11:11 -28.15643 153.50114 27 ft 8 kts 240°
2026-05-06 11:12 -28.15688 153.50096 28 ft 8 kts 162°
2026-05-06 11:12 -28.15733 153.50124 27 ft 7 kts 150°
2026-05-06 11:12 -28.15850 153.50198 29 ft 48 kts 151°
2026-05-06 11:12 -28.16379 153.50535 26 ft 124 kts 150°
2026-05-06 11:13 -28.17305 153.51136 176 ft 172 kts 152°
2026-05-06 11:13 -28.18203 153.51704 610 ft 180 kts 152°
2026-05-06 11:13 -28.19356 153.52371 974 ft 189 kts 159°
2026-05-06 11:13 -28.20580 153.52832 1380 ft 181 kts 159°
2026-05-06 11:14 -28.21711 153.53346 1767 ft 179 kts 156°
2026-05-06 11:14 -28.22955 153.53913 2058 ft 209 kts 158°
2026-05-06 11:14 -28.24376 153.54512 2343 ft 229 kts 166°
2026-05-06 11:14 -28.25971 153.54396 2932 ft 240 kts 200°
2026-05-06 11:15 -28.27325 153.53182 3394 ft 260 kts 230°
2026-05-06 11:15 -28.28396 153.51507 4242 ft 264 kts 234°
2026-05-06 11:15 -28.29433 153.49788 5175 ft 265 kts 235°
2026-05-06 11:15 -28.30477 153.48042 6020 ft 269 kts 235°
2026-05-06 11:16 -28.31534 153.46280 6847 ft 272 kts 234°
2026-05-06 11:16 -28.32608 153.44500 7666 ft 275 kts 234°
2026-05-06 11:16 -28.33683 153.42727 8485 ft 277 kts 234°
2026-05-06 11:16 -28.34785 153.40917 9298 ft 280 kts 234°
2026-05-06 11:17 -28.35903 153.39085 10104 ft 284 kts 235°
2026-05-06 11:17 -28.37052 153.37203 10520 ft 302 kts 235°
2026-05-06 11:17 -28.38354 153.35211 10699 ft 326 kts 226°
2026-05-06 11:17 -28.40090 153.33415 10921 ft 347 kts 220°
2026-05-06 11:18 -28.41979 153.31644 11429 ft 356 kts 220°
2026-05-06 11:18 -28.43912 153.29858 12117 ft 360 kts 220°
2026-05-06 11:18 -28.45866 153.28047 12802 ft 365 kts 220°
2026-05-06 11:18 -28.47841 153.26199 13449 ft 370 kts 221°
2026-05-06 11:19 -28.49803 153.24350 14069 ft 375 kts 221°
2026-05-06 11:19 -28.51817 153.22440 14672 ft 378 kts 222°
2026-05-06 11:19 -28.53838 153.20515 15290 ft 381 kts 223°
2026-05-06 11:19 -28.55881 153.18563 15902 ft 385 kts 223°
2026-05-06 11:20 -28.57936 153.16595 16515 ft 388 kts 224°
2026-05-06 11:20 -28.60004 153.14613 17101 ft 391 kts 224°
2026-05-06 11:20 -28.62096 153.12606 17692 ft 394 kts 224°
2026-05-06 11:20 -28.64204 153.10582 18251 ft 398 kts 225°
2026-05-06 11:21 -28.66322 153.08548 18754 ft 400 kts 225°
2026-05-06 11:21 -28.68430 153.06523 19273 ft 402 kts 225°
2026-05-06 11:21 -28.70569 153.04467 19795 ft 404 kts 225°
2026-05-06 11:21 -28.72726 153.02393 20307 ft 406 kts 225°
2026-05-06 11:22 -28.74894 153.00306 20816 ft 409 kts 225°
2026-05-06 11:22 -28.77068 152.98214 21311 ft 411 kts 225°
2026-05-06 11:22 -28.79259 152.96102 21797 ft 413 kts 225°
2026-05-06 11:22 -28.81456 152.93984 22265 ft 416 kts 225°
2026-05-06 11:23 -28.83678 152.91841 22724 ft 418 kts 226°
2026-05-06 11:23 -28.85899 152.89697 23164 ft 421 kts 225°
2026-05-06 11:23 -28.88114 152.87558 23608 ft 423 kts 225°
2026-05-06 11:23 -28.90364 152.85384 23969 ft 426 kts 226°
2026-05-06 11:24 -28.92634 152.83189 24347 ft 428 kts 226°
2026-05-06 11:24 -28.94914 152.80984 24732 ft 430 kts 226°
2026-05-06 11:24 -28.97190 152.78782 25112 ft 431 kts 226°
2026-05-06 11:24 -28.99485 152.76559 25480 ft 433 kts 227°
2026-05-06 11:25 -29.01785 152.74331 25872 ft 433 kts 227°
2026-05-06 11:25 -29.04083 152.72103 26237 ft 435 kts 227°
2026-05-06 11:25 -29.06398 152.69857 26571 ft 437 kts 227°
2026-05-06 11:25 -29.08722 152.67599 26907 ft 439 kts 228°
2026-05-06 11:26 -29.11046 152.65342 27242 ft 440 kts 228°
2026-05-06 11:26 -29.13360 152.63092 27567 ft 442 kts 228°
2026-05-06 11:26 -29.15704 152.60811 27894 ft 444 kts 228°
2026-05-06 11:26 -29.18065 152.58514 28202 ft 446 kts 228°
2026-05-06 11:27 -29.20428 152.56213 28520 ft 447 kts 228°
2026-05-06 11:27 -29.22793 152.53909 28865 ft 447 kts 228°
2026-05-06 11:27 -29.25156 152.51608 29286 ft 445 kts 229°
2026-05-06 11:27 -29.27518 152.49305 29648 ft 446 kts 229°
2026-05-06 11:28 -29.29873 152.47006 30085 ft 444 kts 229°
2026-05-06 11:28 -29.32209 152.44727 30576 ft 440 kts 229°
2026-05-06 11:28 -29.34501 152.42489 30939 ft 438 kts 229°
2026-05-06 11:28 -29.36821 152.40219 31246 ft 438 kts 230°
2026-05-06 11:29 -29.39135 152.37952 31593 ft 437 kts 230°
2026-05-06 11:29 -29.41438 152.35697 31967 ft 435 kts 230°
2026-05-06 11:29 -29.43733 152.33447 32269 ft 435 kts 230°
2026-05-06 11:29 -29.46031 152.31192 32614 ft 434 kts 230°
2026-05-06 11:30 -29.48317 152.28952 33078 ft 430 kts 230°
2026-05-06 11:30 -29.50584 152.26727 33452 ft 428 kts 231°
2026-05-06 11:30 -29.52841 152.24509 33787 ft 427 kts 231°
2026-05-06 11:30 -29.55088 152.22299 34121 ft 426 kts 231°
2026-05-06 11:31 -29.57317 152.20102 34113 ft 429 kts 231°
2026-05-06 11:31 -29.61839 152.15649 34148 ft 426 kts 231°
2026-05-06 11:32 -29.66299 152.11260 34150 ft 420 kts 231°
2026-05-06 11:32 -29.71319 152.07581 34171 ft 440 kts 215°
2026-05-06 11:32 -29.74182 152.06334 34142 ft 453 kts 206°
2026-05-06 11:33 -29.77259 152.05470 34161 ft 457 kts 204°
2026-05-06 11:33 -29.83481 152.03925 34151 ft 457 kts 202°
2026-05-06 11:34 -29.89696 152.02374 34145 ft 456 kts 203°
2026-05-06 11:34 -29.95883 152.00775 34150 ft 455 kts 203°
2026-05-06 11:35 -30.02012 151.99167 34158 ft 455 kts 203°
2026-05-06 11:35 -30.08191 151.97544 34155 ft 455 kts 203°
2026-05-06 11:36 -30.14370 151.95919 34148 ft 456 kts 203°
2026-05-06 11:36 -30.20559 151.94293 34151 ft 457 kts 203°
2026-05-06 11:37 -30.26758 151.92661 34146 ft 458 kts 202°
2026-05-06 11:37 -30.32907 151.90962 34147 ft 452 kts 208°
2026-05-06 11:38 -30.38706 151.88363 34151 ft 446 kts 212°
2026-05-06 11:38 -30.44448 151.85606 34139 ft 447 kts 212°
2026-05-06 11:39 -30.50177 151.82883 34154 ft 450 kts 210°
2026-05-06 11:39 -30.55983 151.80160 34147 ft 451 kts 210°
2026-05-06 11:40 -30.61801 151.77442 34138 ft 451 kts 210°
2026-05-06 11:40 -30.67619 151.74721 34127 ft 451 kts 210°
2026-05-06 11:41 -30.73430 151.71999 34131 ft 450 kts 210°
2026-05-06 11:41 -30.79207 151.69288 34140 ft 450 kts 210°
2026-05-06 11:42 -30.85007 151.66561 34141 ft 449 kts 210°
2026-05-06 11:42 -30.90795 151.63838 34140 ft 449 kts 210°
2026-05-06 11:43 -30.96579 151.61112 34137 ft 448 kts 210°
2026-05-06 11:43 -31.02358 151.58386 34139 ft 448 kts 210°
2026-05-06 11:44 -31.10983 151.54310 34138 ft 448 kts 209°
2026-05-06 11:44 -31.16757 151.51576 34136 ft 448 kts 209°
2026-05-06 11:45 -31.22533 151.48837 34138 ft 448 kts 209°
2026-05-06 11:45 -31.28297 151.46101 34139 ft 448 kts 209°
2026-05-06 11:46 -31.34078 151.43353 34129 ft 448 kts 210°
2026-05-06 11:46 -31.39812 151.40633 34134 ft 448 kts 209°
2026-05-06 11:47 -31.45646 151.38016 34130 ft 450 kts 208°
2026-05-06 11:47 -31.51501 151.35437 34135 ft 449 kts 208°
2026-05-06 11:48 -31.57347 151.32842 34143 ft 449 kts 208°
2026-05-06 11:48 -31.63161 151.30244 34125 ft 450 kts 208°
2026-05-06 11:49 -31.69004 151.27626 34127 ft 450 kts 208°
2026-05-06 11:49 -31.74848 151.25005 34125 ft 450 kts 208°
2026-05-06 11:50 -31.80695 151.22380 34118 ft 449 kts 208°
2026-05-06 11:50 -31.86525 151.19758 34138 ft 449 kts 208°
2026-05-06 11:51 -31.92334 151.17142 34137 ft 449 kts 208°
2026-05-06 11:51 -31.98186 151.14510 33879 ft 454 kts 208°
2026-05-06 11:52 -32.01144 151.13183 33442 ft 452 kts 208°
2026-05-06 11:52 -32.04067 151.11877 32937 ft 448 kts 208°
2026-05-06 11:52 -32.06974 151.10578 32489 ft 444 kts 208°
2026-05-06 11:52 -32.09852 151.09290 32038 ft 440 kts 208°
2026-05-06 11:53 -32.12694 151.08014 31598 ft 436 kts 208°
2026-05-06 11:53 -32.15521 151.06743 31174 ft 433 kts 208°
2026-05-06 11:53 -32.18320 151.05482 30734 ft 430 kts 208°
2026-05-06 11:53 -32.21071 151.04242 30309 ft 427 kts 208°
2026-05-06 11:54 -32.23867 151.02981 29819 ft 424 kts 208°
2026-05-06 11:54 -32.26573 151.01760 29346 ft 420 kts 208°
2026-05-06 11:54 -32.29300 151.00530 28904 ft 416 kts 208°
2026-05-06 11:54 -32.31985 150.99317 28448 ft 412 kts 208°
2026-05-06 11:55 -32.34650 150.98113 28019 ft 408 kts 208°
2026-05-06 11:55 -32.37293 150.96917 27578 ft 405 kts 208°
2026-05-06 11:55 -32.39921 150.95727 27145 ft 402 kts 208°
2026-05-06 11:55 -32.42515 150.94552 26722 ft 398 kts 208°
2026-05-06 11:56 -32.45098 150.93381 26295 ft 396 kts 208°
2026-05-06 11:56 -32.47685 150.92296 25873 ft 398 kts 201°
2026-05-06 11:56 -32.50395 150.91724 25435 ft 404 kts 191°
2026-05-06 11:56 -32.53202 150.91701 25188 ft 404 kts 180°
2026-05-06 11:57 -32.55992 150.92133 24791 ft 405 kts 177°
2026-05-06 11:57 -32.58773 150.92671 24388 ft 404 kts 176°
2026-05-06 11:57 -32.61538 150.93223 23970 ft 403 kts 176°
2026-05-06 11:57 -32.64304 150.93761 23510 ft 401 kts 176°
2026-05-06 11:58 -32.67034 150.94274 23042 ft 394 kts 176°
2026-05-06 11:58 -32.69723 150.94767 22614 ft 386 kts 176°
2026-05-06 11:58 -32.72358 150.95243 22203 ft 379 kts 176°
2026-05-06 11:58 -32.74933 150.95706 21802 ft 372 kts 176°
2026-05-06 11:59 -32.77439 150.96158 21421 ft 366 kts 176°
2026-05-06 11:59 -32.79939 150.96607 21072 ft 361 kts 176°
2026-05-06 11:59 -32.82402 150.97046 20761 ft 357 kts 176°
2026-05-06 11:59 -32.84881 150.97482 20403 ft 368 kts 175°
2026-05-06 12:00 -32.87468 150.97934 20018 ft 380 kts 175°
2026-05-06 12:00 -32.90088 150.98397 19590 ft 380 kts 175°
2026-05-06 12:00 -32.92676 150.98859 19180 ft 374 kts 175°
2026-05-06 12:00 -32.95235 150.99317 18781 ft 369 kts 174°
2026-05-06 12:01 -32.97749 150.99766 18389 ft 364 kts 174°
2026-05-06 12:01 -33.00237 151.00210 17945 ft 358 kts 174°
2026-05-06 12:01 -33.02685 151.00648 17534 ft 352 kts 174°
2026-05-06 12:01 -33.05049 151.01069 17148 ft 346 kts 174°
2026-05-06 12:02 -33.07420 151.01492 16775 ft 343 kts 174°
2026-05-06 12:02 -33.09780 151.01912 16410 ft 342 kts 174°
2026-05-06 12:02 -33.12130 151.02331 16045 ft 341 kts 174°
2026-05-06 12:02 -33.14467 151.02748 15675 ft 340 kts 174°
2026-05-06 12:03 -33.16816 151.03167 15195 ft 342 kts 174°
2026-05-06 12:03 -33.19152 151.03586 14915 ft 338 kts 174°
2026-05-06 12:03 -33.21479 151.04002 14551 ft 338 kts 174°
2026-05-06 12:03 -33.23793 151.04417 14195 ft 337 kts 174°
2026-05-06 12:04 -33.26078 151.04844 13833 ft 336 kts 174°
2026-05-06 12:04 -33.28390 151.05289 13434 ft 335 kts 173°
2026-05-06 12:04 -33.30686 151.05732 13051 ft 334 kts 173°
2026-05-06 12:04 -33.32976 151.06172 12660 ft 330 kts 174°
2026-05-06 12:05 -33.35208 151.06601 12280 ft 321 kts 174°
2026-05-06 12:05 -33.37392 151.07021 11925 ft 314 kts 174°
2026-05-06 12:05 -33.39548 151.07433 11597 ft 315 kts 174°
2026-05-06 12:05 -33.41711 151.07847 11248 ft 317 kts 174°
2026-05-06 12:06 -33.43922 151.08270 10902 ft 327 kts 174°
2026-05-06 12:06 -33.46152 151.08697 10556 ft 330 kts 173°
2026-05-06 12:06 -33.48390 151.09129 10417 ft 320 kts 174°
2026-05-06 12:06 -33.50555 151.09548 10255 ft 309 kts 174°
2026-05-06 12:07 -33.52632 151.09950 10120 ft 295 kts 174°
2026-05-06 12:07 -33.54630 151.10334 9964 ft 288 kts 174°
2026-05-06 12:07 -33.56604 151.10713 9656 ft 287 kts 174°
2026-05-06 12:07 -33.58570 151.11091 9383 ft 285 kts 174°
2026-05-06 12:08 -33.60519 151.11466 9094 ft 284 kts 174°
2026-05-06 12:08 -33.62436 151.11839 8900 ft 280 kts 173°
2026-05-06 12:08 -33.64350 151.12217 8734 ft 278 kts 174°
2026-05-06 12:08 -33.66262 151.12595 8571 ft 279 kts 173°
2026-05-06 12:09 -33.68091 151.12956 8415 ft 281 kts 173°
2026-05-06 12:09 -33.69865 151.13306 8265 ft 282 kts 173°
2026-05-06 12:09 -33.71809 151.13686 8085 ft 283 kts 174°
2026-05-06 12:09 -33.73706 151.14053 7928 ft 284 kts 174°
2026-05-06 12:10 -33.75692 151.14437 7747 ft 284 kts 174°
2026-05-06 12:10 -33.77622 151.14812 7581 ft 281 kts 174°
2026-05-06 12:10 -33.79535 151.15184 7406 ft 276 kts 174°
2026-05-06 12:10 -33.81427 151.15404 7225 ft 270 kts 189°
2026-05-06 12:11 -33.83242 151.14942 7106 ft 266 kts 197°
2026-05-06 12:11 -33.85042 151.14400 6942 ft 267 kts 197°
2026-05-06 12:11 -33.86842 151.13862 6785 ft 267 kts 197°
2026-05-06 12:11 -33.88648 151.13330 6632 ft 267 kts 197°
2026-05-06 12:12 -33.90437 151.12809 6468 ft 268 kts 197°
2026-05-06 12:12 -33.92253 151.12283 6311 ft 268 kts 197°
2026-05-06 12:12 -33.94072 151.11758 6145 ft 269 kts 197°
2026-05-06 12:12 -33.95858 151.11243 6026 ft 266 kts 197°
2026-05-06 12:13 -33.97667 151.10721 5833 ft 268 kts 197°
2026-05-06 12:13 -33.99474 151.10199 5661 ft 265 kts 197°
2026-05-06 12:13 -34.01261 151.09683 5503 ft 263 kts 197°
2026-05-06 12:13 -34.03038 151.09170 5352 ft 263 kts 197°
2026-05-06 12:14 -34.04816 151.08655 5201 ft 263 kts 197°
2026-05-06 12:14 -34.06581 151.08145 5034 ft 259 kts 197°
2026-05-06 12:14 -34.08352 151.07818 4856 ft 261 kts 178°
2026-05-06 12:14 -34.10148 151.08240 4756 ft 266 kts 169°
2026-05-06 12:15 -34.11945 151.08730 4589 ft 270 kts 169°
2026-05-06 12:15 -34.13791 151.09220 4423 ft 273 kts 170°
2026-05-06 12:15 -34.15653 151.09707 4251 ft 273 kts 170°
2026-05-06 12:15 -34.17486 151.10207 4082 ft 269 kts 164°
2026-05-06 12:16 -34.19085 151.11347 3900 ft 267 kts 134°
2026-05-06 12:16 -34.20022 151.13235 3778 ft 264 kts 104°
2026-05-06 12:16 -34.20176 151.15426 3632 ft 261 kts 85°
2026-05-06 12:16 -34.20070 151.17620 3474 ft 263 kts 83°
2026-05-06 12:17 -34.19833 151.19800 3295 ft 258 kts 69°
2026-05-06 12:17 -34.18996 151.21626 3137 ft 244 kts 40°
2026-05-06 12:17 -34.17563 151.22490 3040 ft 230 kts
2026-05-06 12:17 -34.15997 151.22614 3008 ft 225 kts 359°
2026-05-06 12:18 -34.14440 151.22548 3003 ft 224 kts 352°
2026-05-06 12:18 -34.12889 151.22292 3000 ft 221 kts 347°
2026-05-06 12:18 -34.11442 151.21955 2983 ft 202 kts 346°
2026-05-06 12:18 -34.10094 151.21611 2751 ft 193 kts 346°
2026-05-06 12:19 -34.08821 151.21281 2506 ft 183 kts 346°
2026-05-06 12:19 -34.07589 151.20960 2277 ft 177 kts 346°
2026-05-06 12:19 -34.06433 151.20661 2046 ft 162 kts 346°
2026-05-06 12:19 -34.05373 151.20385 1851 ft 152 kts 347°
2026-05-06 12:20 -34.04342 151.20117 1643 ft 148 kts 346°
2026-05-06 12:20 -34.03414 151.19877 1446 ft 133 kts 347°
2026-05-06 12:20 -34.02521 151.19645 1291 ft 130 kts 346°
2026-05-06 12:20 -34.01626 151.19412 1110 ft 132 kts 348°
2026-05-06 12:21 -34.00728 151.19180 942 ft 132 kts 347°
2026-05-06 12:21 -33.99815 151.18937 753 ft 137 kts 347°
2026-05-06 12:21 -33.98884 151.18706 577 ft 138 kts 347°
2026-05-06 12:21 -33.97948 151.18466 380 ft 137 kts 346°
2026-05-06 12:22 -33.97018 151.18215 189 ft 140 kts 346°
2026-05-06 12:22 -33.96094 151.17980 34 ft 131 kts 345°
2026-05-06 12:22 -33.95316 151.17776 28 ft 93 kts 347°
2026-05-06 12:22 -33.94844 151.17652 28 ft 44 kts 348°
2026-05-06 12:23 -33.94652 151.17646 28 ft 23 kts
2026-05-06 12:23 -33.94536 151.17675 29 ft 10 kts 14°
2026-05-06 12:23 -33.94498 151.17689 29 ft 3 kts 18°
2026-05-06 12:23 -33.94483 151.17695 29 ft 2 kts 18°
2026-05-06 12:24 -33.94473 151.17699 29 ft 1 kts 18°
2026-05-06 12:24 -33.94453 151.17707 29 ft 9 kts 18°
2026-05-06 12:24 -33.94371 151.17736 29 ft 15 kts
2026-05-06 12:24 -33.94268 151.17715 28 ft 15 kts 346°
2026-05-06 12:25 -33.94179 151.17687 28 ft 13 kts 345°
2026-05-06 12:25 -33.94093 151.17662 27 ft 12 kts 347°
2026-05-06 12:25 -33.94010 151.17640 27 ft 12 kts 348°
2026-05-06 12:25 -33.93951 151.17624 28 ft 0 kts 347°
2026-05-06 12:27 -33.93927 151.17618 28 ft 8 kts 347°
2026-05-06 12:27 -33.93856 151.17599 28 ft 13 kts 347°
2026-05-06 12:28 -33.93756 151.17573 28 ft 16 kts 348°
2026-05-06 12:28 -33.93663 151.17582 28 ft 10 kts 42°
2026-05-06 12:28 -33.93643 151.17660 29 ft 10 kts 95°
2026-05-06 12:28 -33.93651 151.17734 29 ft 8 kts 100°
2026-05-06 12:29 -33.93651 151.17798 29 ft 8 kts 59°
2026-05-06 12:29 -33.93602 151.17821 29 ft 8 kts 10°
2026-05-06 12:29 -33.93550 151.17832 29 ft 7 kts 10°
2026-05-06 12:29 -33.93517 151.17848 29 ft 4 kts 51°
2026-05-06 12:30 -33.93514 151.17860 29 ft 1 kts 84°
2026-05-06 12:30 -33.93516 151.17870 29 ft 1 kts 99°
2026-05-06 12:30 -33.93518 151.17883 29 ft 2 kts 99°
2026-05-06 12:30 -33.93520 151.17900 29 ft 0 kts 100°
2026-05-06 12:31 -33.93520 151.17901 29 ft 0 kts 99°
2026-05-06 12:31 -33.93521 151.17906 29 ft 1 kts 100°
2026-05-06 12:31 -33.93522 151.17912 29 ft 0 kts 100°
2026-05-06 12:31 -33.93522 151.17915 29 ft 1 kts 100°
2026-05-06 12:32 -33.93523 151.17919 29 ft 0 kts 100°